Weather History for KPDT - May, 2014

Change the Weather History Date:

Thursday, May 29, 2014

  Actual Average Record
Temperature  
Mean Temperature 58 °F 61 °F  
Max Temperature 72 °F 73 °F 103 °F (1897)
Min Temperature 44 °F 49 °F 34 °F (1924)
Degree Days  
Heating Degree Days 7 5  
Month to date heating degree days 163 236  
Since 1 July heating degree days 5441 5183  
Cooling Degree Days 0 1  
Month to date cooling degree days 18 20  
Year to date cooling degree days 18 21  
Growing Degree Days 8 (Base 50)    
Moisture  
Dew Point 35 °F    
Average Humidity 45    
Maximum Humidity 65    
Minimum Humidity 25    
Precipitation  
Precipitation 0.00 in 0.05 in 1.64 in (1906)
Month to date precipitation 0.83 1.25  
Year to date precipitation 6.47 6.31  
Snow  
Snow 0.00 in 0.00 in 0.00 in (2002)
Month to date snowfall 0.0 0.0  
Year to date snowfall 15.2 7.7  
Since 1 July snowfall 21.7 15.2  
Snow Depth 0.00 in    
Sea Level Pressure  
Sea Level Pressure 30.12 in    
Wind  
Wind Speed 10 mph (WSW)    
Max Wind Speed 22 mph    
Max Gust Speed 29 mph    
Visibility 10 miles    
Events      
T = Trace of Precipitation, MM = Missing Value Source: NWS Daily Summary

Daily Weather History Graph

Daily Weather History Graph

Search for Another Location

Airport or City:

Trip Planner

Search our weather history database for the weather conditions in past years. The results will help you decide how hot, cold, wet, or windy it might be!

Date:

Astronomy

May. 29, 2014 Rise Set
Actual Time 5:11 AM PDT 8:34 PM PDT
Civil Twilight 4:34 AM PDT 9:11 PM PDT
Nautical Twilight 3:46 AM PDT 10:00 PM PDT
Astronomical Twilight 2:45 AM PDT 11:02 PM PDT
Moon 6:11 AM PDT (5/29) 9:26 PM PDT (5/29)
Length of Visible Light 16h 37m
Length of Day
15h 23m
New Moon, 1% of the Moon is Illuminated
May 29
New Moon
Jun 5
First Quarter
Jun 12
Full
Jun 19
Last Quarter
Jun 27
New

Hourly Weather History & Observations

Time (PDT) Temp. Windchill Dew Point Humidity Pressure Visibility Wind Dir Wind Speed Gust Speed Precip Events Conditions
12:53 AM 48.2 °F - 35.6 °F 62% 30.15 in 10.0 mi SW 6.9 mph - N/A   Clear
1:53 AM 51.1 °F - 36.0 °F 56% 30.14 in 10.0 mi SW 13.8 mph - N/A   Scattered Clouds
2:53 AM 46.0 °F 41.9 °F 35.1 °F 66% 30.15 in 10.0 mi South 8.1 mph - N/A   Scattered Clouds
3:53 AM 46.0 °F 41.4 °F 35.1 °F 66% 30.16 in 10.0 mi South 9.2 mph - N/A   Clear
4:53 AM 46.9 °F - 35.1 °F 63% 30.16 in 10.0 mi SSW 10.4 mph - N/A   Partly Cloudy
5:53 AM 46.9 °F - 35.1 °F 63% 30.17 in 10.0 mi SW 10.4 mph - N/A   Mostly Cloudy
6:53 AM 50.0 °F - 35.1 °F 57% 30.18 in 10.0 mi SSW 6.9 mph - N/A   Scattered Clouds
7:53 AM 55.0 °F - 36.0 °F 49% 30.18 in 10.0 mi SW 12.7 mph - N/A   Clear
8:53 AM 55.9 °F - 37.0 °F 49% 30.19 in 10.0 mi WSW 13.8 mph 20.7 mph N/A   Overcast
9:53 AM 57.9 °F - 36.0 °F 44% 30.19 in 10.0 mi West 15.0 mph - N/A   Overcast
10:53 AM 61.0 °F - 35.1 °F 38% 30.17 in 10.0 mi SW 8.1 mph - N/A   Mostly Cloudy
11:53 AM 64.0 °F - 33.1 °F 31% 30.15 in 10.0 mi WSW 12.7 mph 18.4 mph N/A   Mostly Cloudy
12:53 PM 64.9 °F - 33.1 °F 31% 30.14 in 10.0 mi WSW 8.1 mph - N/A   Partly Cloudy
1:53 PM 69.8 °F - 32.0 °F 25% 30.14 in 10.0 mi West 12.7 mph - N/A   Scattered Clouds
2:53 PM 69.8 °F - 32.0 °F 25% 30.12 in 10.0 mi WNW 9.2 mph - N/A   Clear
3:53 PM 71.1 °F - 34.0 °F 26% 30.08 in 10.0 mi NNW 8.1 mph - N/A   Clear
4:53 PM 71.1 °F - 34.0 °F 26% 30.07 in 10.0 mi NNE 6.9 mph - N/A   Clear
5:53 PM 71.1 °F - 34.0 °F 26% 30.05 in 10.0 mi NNE 5.8 mph - N/A   Clear
6:53 PM 70.0 °F - 34.0 °F 27% 30.04 in 10.0 mi NW 8.1 mph - N/A   Clear
7:53 PM 66.9 °F - 36.0 °F 32% 30.04 in 10.0 mi NNW 9.2 mph - N/A   Clear
8:53 PM 57.0 °F - 35.1 °F 44% 30.04 in 10.0 mi NE 8.1 mph - N/A   Clear
9:53 PM 54.0 °F - 34.0 °F 47% 30.06 in 10.0 mi NE 8.1 mph - N/A   Clear
10:53 PM 52.0 °F - 37.0 °F 57% 30.06 in 10.0 mi East 9.2 mph - N/A   Clear
11:53 PM 52.0 °F - 37.0 °F 57% 30.06 in 10.0 mi ESE 8.1 mph - N/A   Clear